Regional Weather Roundup
Issued by NWS

Home | Current Version | Previous Version | Text Only | Print | Product List | Glossary On
Versions: 1 2 3 4 5 6 7 8 9 10 11 12 13 14 15 16 17 18 19 20 21 22 23 24 25 26 27 28 29 30 31 32 33 34 35 36 37 38 39 40 41 42 43 44 45 46 47 48 49 50
000
ASUS45 KBOU 290707
RWRCO

WEATHER ROUNDUP FOR COLORADO
NATIONAL WEATHER SERVICE DENVER/BOULDER CO
1200 AM MST THU JAN 29 2015

NOTE: "FAIR" INDICATES FEW OR NO CLOUDS BELOW 12000 FEET WITH NO
SIGNIFICANT WEATHER AND/OR OBSTRUCTIONS TO VISIBILITY.

COZ001>005-013-030-031-290800-
...NORTHWEST COLORADO...

CITY           SKY/WX    TMP DP  RH WIND       PRES   REMARKS
CRAIG          CLOUDY    34  31  88 CALM      30.35R
HAYDEN         CLOUDY    34  28  80 S3        30.35R
MEEKER         PTCLDY    24  21  88 CALM      30.35R
MOUNT WERNER   NOT AVBL
STEAMBOAT SPGS CLOUDY    34  29  81 E3        30.35R
WALDEN         CLOUDY    32  27  80 E3        30.34S
$$

COZ006>008-011-290800-
...WEST CENTRAL VALLEYS...

CITY           SKY/WX    TMP DP  RH WIND       PRES   REMARKS
GRAND JUNCTION CLOUDY    38  30  73 E5        30.30R
MONTROSE       CLOUDY    32  26  78 S7        30.34R WCI  26
EAGLE          CLOUDY    32  28  86 CALM      30.38R
RIFLE          CLOUDY    35  27  72 E6        30.33R WCI  30
DELTA          NOT AVBL
NUCLA          CLOUDY    34  27  75 E7        30.35S WCI  28
$$

COZ017>023-064>068-290800-
...SOUTHWEST COLORADO...

CITY           SKY/WX    TMP DP  RH WIND       PRES   REMARKS
DURANGO        CLOUDY    31  27  85 NE5       30.30R WCI  26
CORTEZ         CLEAR     31  26  82 E7        30.31R WCI  24
PAGOSA SPRINGS CLOUDY    30  26  85 CALM      30.34R
TELLURIDE      CLOUDY    30  22  73 CALM      30.36S
WOLF CREEK PAS NOT AVBL
$$

COZ009-010-012-014-032>034-037-058>063-290800-
...CENTRAL COLORADO...

CITY           SKY/WX    TMP DP  RH WIND       PRES   REMARKS
ASPEN          CLOUDY    31  23  72 S7        30.35R WCI  24
BUENA VISTA    PTCLDY    30  19  64 NW10G16   30.35R WCI  21
COPPER MTN     FLURRIES  25  19  80 NW3       30.38S
BERTHOUD PASS  CLOUDY    16  10  79 NW10      30.39R WCI   3
COTTONWOOD PAS PTCLDY    32  18  55 NW6       30.37R WCI  26
GUNNISON       MOCLDY    12   9  85 CALM      30.39R
KREMMLING      CLOUDY    30  27  86 CALM      30.37R
LEADVILLE      CLOUDY    21  13  71 NE3       30.36R
MONARCH PASS   MOCLDY    21  16  79 MISG      30.48S
SALIDA         PTCLDY    31  20  63 CALM      30.42R
SUNLIGHT       PTCLDY    27  25  93 CALM        N/A
WILKERSON PASS MOCLDY    25  12  58 N5        30.40S WCI  19
$$

COZ069>075-290800-
...SAN LUIS VALLEY/SANGRE DE CRISTO MOUNTAINS...

CITY           SKY/WX    TMP DP  RH WIND       PRES   REMARKS
ALAMOSA        CLOUDY    22  16  78 SE6       30.32R WCI  14
LA VETA PASS   NOT AVBL
SAGUACHE       MOCLDY    30  21  69 NW17      30.33S WCI  18
$$

COZ035-036-038>040-290800-
...NORTHERN COLORADO FRONT RANGE...

CITY           SKY/WX    TMP DP  RH WIND       PRES   REMARKS
DENVER INTL AP MOCLDY    37  29  72 W8        30.36R
DMNS CITY PARK   N/A     39  30  70 N1        30.37S
AURORA         CLOUDY    35  30  82 SW3       30.37R
FRONT RANGE AP NOT AVBL
ERIE MUNI ARPT CLOUDY    38  32  76 NW3       30.37R
BOULDER MUN AP CLOUDY    39  30  70 NE6       30.37S
CENTENNIAL     MOCLDY    38  30  73 N7        30.36R
BROOMFIELD     CLOUDY    37  32  81 NW7       30.38R
FORT COLLINS   MOCLDY    37  28  70 NW10      30.37R
LONGMONT       CLOUDY    39  32  75 E3        30.39R
$$

COZ041-046-047-076>085-087-088-290800-
...PIKES PEAK/PALMER DIVIDE AND SOUTHERN FOOTHILLS...

CITY           SKY/WX    TMP DP  RH WIND       PRES   REMARKS
COLO. SPRINGS  MOCLDY    37  29  72 NW14G25   30.34R
A. F. ACADEMY  PTCLDY    36  28  75 N12       30.34R
ELLICOTT       PTCLDY   N/A N/A N/A N17       30.31R
FALCON         MOCLDY    33  27  78 N15G21    30.33S WCI  23
FORT CARSON    PTCLDY    38  29  70 N18       30.32R
LIMON          CLEAR     32  28  85 NW9       30.32R WCI  24
MONUMENT HILL  CLOUDY    30  28  93 N7        30.35R WCI  23
TRINIDAD       MOCLDY    38  29  70 CALM      30.35R
$$

COZ042>045-048>051-090-091-290800-
...NORTHEAST COLORADO...

CITY           SKY/WX    TMP DP  RH WIND       PRES   REMARKS
GREELEY ARPT   CLOUDY    43  27  52 N14G22    30.31R
AKRON          CLOUDY    38  29  70 N17       30.29R
BURLINGTON     CLEAR     39  31  72 N21G30    30.25S
WRAY           CLEAR     37  32  84 NW10      30.30R
STERLING       CLOUDY    43  32  65 N13       30.30S
HOLYOKE        CLEAR     36  30  80 NW7       30.30R
FORT MORGAN    CLOUDY    41  28  61 N18       30.31R
$$

COZ086-089-092>099-290800-
...SOUTHEAST COLORADO...

CITY           SKY/WX    TMP DP  RH WIND       PRES   REMARKS
PUEBLO         MOCLDY    35  28  75 CALM      30.34R
LA JUNTA       PTCLDY    39  31  72 MISG      30.32R
LAMAR          PTCLDY    35  30  82 W7        30.26R WCI  29
SPRINGFIELD      N/A     35  30  82 NW9       30.27R WCI  28
$$


USA.gov is the U.S. government's official web portal to all federal, state and local government web resources and services.